Find Starlink 11562

NORAD ID: 62918 Int'l Des: 2025-027 Owner: SPXS Country: US Constellation: starlink operational
LEOCIRCULAR

当前视图

正在加载3D地球...

About Starlink 11562

Starlink 11562 (NORAD 62918) is a starlink constellation satellite (v2 mini d2c) launched Feb 8, 2025 by SPXS of US. It operates in LEO, CIRCULAR orbit with a mass of 960.00 kg.

关于 Starlink 11562

正在加载描述...

即将过境

Passes for default location (London). Set your location on the main map for personalized predictions.

高度历史

Loading altitude history...

两行轨道根数

1 62918U 25027M 26170.16476899 .00216392 00000-0 16397-2 0 9999
2 62918 42.9984 95.8162 0003045 259.9517 100.1007 15.70935070 79153
Epoch: Jun 19, 2026 • Age: 21 hours

当前状态

高度 359.8 km
速度 7.69 km/s
星下点 -24.48°S, 20.77°E
发射日期 Feb 8, 2025
运行时间 1.3 years
类型 internet

技术详情

分类 Payload
质量 960.00 kg
干质量 910.00 kg
总质量 960.00 kg
长度 0.30 m
直径 4.10 m
跨度 29.00 m
形状 Box + pan
制造商 SPXS
平台类型 Starlink V2MD
阶段状态 In Orbit
所有者/国家 SPXS/US

Most Searched